TimeCDT,TemperatureF,Dew PointF,Humidity,Sea Level PressureIn,VisibilityMPH,Wind Direction,Wind SpeedMPH,Gust SpeedMPH,PrecipitationIn,Events,Conditions,WindDirDegrees,DateUTC
12:53 AM,82.0,64.0,54,29.86,10.0,SSW,6.9,-,N/A,,Clear,200,2012-07-05 05:53:00
1:53 AM,81.0,64.0,56,29.87,10.0,SSW,4.6,-,N/A,,Clear,200,2012-07-05 06:53:00
2:53 AM,78.1,64.0,62,29.88,10.0,South,3.5,-,N/A,,Clear,170,2012-07-05 07:53:00
3:53 AM,75.0,64.0,69,29.89,10.0,South,4.6,-,N/A,,Clear,190,2012-07-05 08:53:00
4:53 AM,73.9,64.0,71,29.90,10.0,South,4.6,-,N/A,,Clear,190,2012-07-05 09:53:00
5:53 AM,75.0,63.0,66,29.91,10.0,South,3.5,-,N/A,,Clear,190,2012-07-05 10:53:00
6:53 AM,75.9,66.0,71,29.94,10.0,Calm,Calm,-,N/A,,Clear,0,2012-07-05 11:53:00
7:53 AM,80.1,64.9,60,29.95,10.0,South,4.6,-,N/A,,Clear,180,2012-07-05 12:53:00
8:53 AM,82.9,66.9,58,29.96,10.0,South,5.8,-,N/A,,Clear,190,2012-07-05 13:53:00
9:53 AM,87.1,69.1,55,29.95,10.0,SSW,9.2,-,N/A,,Clear,200,2012-07-05 14:53:00
10:53 AM,90.0,70.0,52,29.95,10.0,SSW,5.8,-,N/A,,Clear,200,2012-07-05 15:53:00
11:53 AM,91.9,70.0,48,29.95,10.0,South,6.9,-,N/A,,Clear,180,2012-07-05 16:53:00
12:53 PM,93.9,68.0,43,29.93,10.0,SSW,9.2,-,N/A,,Clear,210,2012-07-05 17:53:00
1:53 PM,96.8,68.0,39,29.95,10.0,South,8.1,-,N/A,,Clear,180,2012-07-05 18:53:00
2:53 PM,97.0,68.0,39,29.91,10.0,SSE,8.1,-,N/A,,Clear,160,2012-07-05 19:53:00
3:53 PM,98.1,64.9,34,29.91,10.0,South,8.1,-,N/A,,Clear,170,2012-07-05 20:53:00
4:53 PM,98.1,62.1,30,29.89,10.0,South,9.2,-,N/A,,Clear,180,2012-07-05 21:53:00
5:53 PM,98.1,62.1,30,29.88,10.0,South,8.1,-,N/A,,Clear,170,2012-07-05 22:53:00
6:53 PM,95.0,66.9,40,29.88,10.0,SSE,4.6,-,N/A,,Clear,150,2012-07-05 23:53:00
7:53 PM,91.9,69.1,47,29.88,10.0,SE,4.6,-,N/A,,Clear,140,2012-07-06 00:53:00
8:53 PM,87.1,66.0,49,29.88,10.0,SE,4.6,-,N/A,,Clear,140,2012-07-06 01:53:00
9:53 PM,80.1,71.1,74,29.91,10.0,Calm,Calm,-,N/A,,Clear,0,2012-07-06 02:53:00
10:53 PM,77.0,70.0,79,29.92,10.0,Calm,Calm,-,N/A,,Clear,0,2012-07-06 03:53:00
11:53 PM,77.0,70.0,79,29.93,10.0,Calm,Calm,-,N/A,,Clear,0,2012-07-06 04:53:00